Hourly Data Report for September 12, 2010

IQALUIT CLIMATE
NUNAVUT

63°44'50.000" N
68°32'40.000" W
33.50 m
2402592
71321
XFB

Download Data

Hourly Data (September 2010)
Hourly Data Report for September 12, 2010
TIME
LST
Temp Definition
°C
Dew Point Definition
°C
Rel Hum Definition
%
Precip. Amount Definition
mm

Wind Dir Definition
10's deg

Wind Spd Definition
km/h
Visibility Definition
km
Stn Press Definition
kPa
Hmdx Definition


Wind Chill Definition


Weather Definition


00:00 1.0 -1.0 86   35 4   101.35     LegendNANA
01:00 0.3 -1.3 89   34 6   101.36     LegendNANA
02:00 1.4 -0.5 87   34 4   101.33     LegendNANA
03:00 -0.3 -1.2 94   30 4   101.32   -2 LegendNANA
04:00 -0.5 -1.4 94   32 2   101.33   -1 LegendNANA
05:00 0.8 -0.4 92     0   101.30     LegendNANA
06:00 0.7 0.2 96   1 2   101.31     LegendNANA
07:00 2.4 0.7 89   1 2   101.31     LegendNANA
08:00 3.2 1.0 85   14 2   101.27     LegendNANA
09:00 4.2 1.0 80   15 7   101.26     LegendNANA
10:00 5.2 0.8 73   16 6   101.22     LegendNANA
11:00 4.8 0.0 71   13 6   101.16     LegendNANA
12:00 4.8 0.7 75   13 7   101.13     LegendNANA
13:00 4.4 1.0 79   14 11   101.06     LegendNANA
14:00 4.5 1.6 81   13 11   101.02     LegendNANA
15:00 4.8 1.5 79   14 15   101.00     LegendNANA
16:00 5.1 1.3 76   14 13   100.98     LegendNANA
17:00 5.0 0.2 71   15 20   100.99     LegendNANA
18:00 3.6 0.9 82   16 15   100.94     LegendNANA
19:00 4.1 0.9 80   16 9   100.92     LegendNANA
20:00 4.3 0.8 78   15 9   100.90     LegendNANA
21:00 3.6 0.8 82   15 19   100.88     LegendNANA
22:00 3.5 0.7 82   16 13   100.83     LegendNANA
23:00 3.5 0.9 83   13 19   100.84     LegendNANA

Notes on Data Quality.

Legend

  • E = Estimated
  • M = Missing
  • NA = Not Available*
  • [empty] = Indicates an unobserved value
Date modified: